"Pseudo-MPEC" for C3ZYMY2

Created 2020 Nov 25 12:07:13 UT using Find_Orb

Click here for an explanation of pseudo-MPECs

 
 Astrometry: 
     C3ZYMY2  C2020 11 13.29894 04 25 07.91 +34 16 27.9    ~BP5b 21.6 GVNEOCPG96
     C3ZYMY2  C2020 11 13.31437 04 25 06.22 +34 16 42.5    ~BP5b 21.5 GVNEOCPG96
     C3ZYMY2  C2020 11 22.27824304 07 49.46 +36 27 03.2    ~BM7b 20.94GVNEOCPG96
     C3ZYMY2  C2020 11 22.28339604 07 48.77 +36 27 07.2    ~BM7b 21.30GVNEOCPG96
     C3ZYMY2  C2020 11 22.28854804 07 48.09 +36 27 11.2    ~BM7b 21.37GVNEOCPG96
     C3ZYMY2 KC2020 11 22.31589404 07 44.63 +36 27 32.8    ~BM87 21.45GVNEOCPI52
     C3ZYMY2 KC2020 11 22.31973004 07 44.10 +36 27 35.7    ~BM87 21.79GVNEOCPI52
     C3ZYMY2 KC2020 11 22.32356704 07 43.61 +36 27 39.1    ~BM87 20.89GVNEOCPI52
     C3ZYMY2 KC2020 11 22.37398004 07 37.15 +36 28 17.6    ~BM9M 21.05GVNEOCPV06
     C3ZYMY2 KC2020 11 22.37635604 07 36.90 +36 28 19.4    ~BM9M 21.31GVNEOCPV06
     C3ZYMY2 KC2020 11 22.37873204 07 36.60 +36 28 21.3    ~BM9M 21.14GVNEOCPV06
     C3ZYMY2 KC2020 11 23.13428104 06 03.84 +36 38 02.2    ~BN3q 21.71GVNEOCPV06
     C3ZYMY2 KC2020 11 23.14061504 06 03.04 +36 38 07.0    ~BN3q 21.15GVNEOCPV06
     C3ZYMY2 KC2020 11 23.14694904 06 02.27 +36 38 12.0    ~BN3q 20.93GVNEOCPV06
     C3ZYMY2 KC2020 11 25.18316704 01 47.35 +37 03 15.4    ~BP57 20.74GVNEOCPI52
     C3ZYMY2 KC2020 11 25.18736204 01 46.78 +37 03 18.1    ~BP57 20.47GVNEOCPI52
     C3ZYMY2 KC2020 11 25.19575504 01 45.60 +37 03 25.1    ~BP57 21.86GVNEOCPI52

Station data:
(G96) Mt. Lemmon Survey  (N32.442754 W110.788720)  US/Arizona.  Observers T.
   A. Pruyne, B. M. Africano, E. J. Christensen, G. A. Farneth, D. C. Fuls,
   A. R. Gibbs, A. D. Grauer, H. Gröller, J. A. Johnson, R. A. Kowalski, S.
   M. Larson, G. J. Leonard, D. Rankin, R. L. Seaman, F. C. Shelly. 1.5-m
   reflector + 10K CCD.
(I52) Steward Observatory, Mt. Lemmon Station  (N32.442547 W110.788920)
   US/Arizona.  Observers T. A. Pruyne, B. M. Africano, E. J. Christensen, G.
   A. Farneth, D. C. Fuls, A. R. Gibbs, A. D. Grauer, H. Gröller, J. A.
   Johnson, R. A. Kowalski, S. M. Larson, G. J. Leonard, D. Rankin, R. L.
   Seaman, F. C. Shelly. 1.0-m reflector + CCD.
(V06) Catalina Sky Survey-Kuiper  (N32.416847 W110.732550)  US/Arizona.
   Observers T. A. Pruyne, B. M. Africano, E. J. Christensen, G. A. Farneth,
   D. C. Fuls, A. R. Gibbs, A. D. Grauer, H. Gröller, J. A. Johnson, R. A.
   Kowalski, S. M. Larson, G. J. Leonard, D. Rankin, R. L. Seaman, F. C.
   Shelly. 1.55-m reflector + CCD.

Orbital elements:  C3ZYMY2
   Perihelion 2021 Dec 20.692320 +/- 1.63 TT = 16:36:56 (JD 2459569.192320)
Epoch 2020 Nov 25.0 TT = JDT 2459178.5   Earth MOID: 0.7405   AutoNEOCP
M 204.28785882 +/- 0.58             (J2000 ecliptic)
n   0.39855439 +/- 0.000401         Peri.  178.14570 +/- 0.52
a   1.82870778 +/- 0.00123          Node    45.31351 +/- 0.034
e   0.0434063 +/- 0.000351          Incl.   22.77208 +/- 0.052
P   2.47/903.25d           H 19.7   G  0.15   U  7.5  
q 1.74933017 +/- 0.00111    Q 1.90808539 +/- 0.00163
From 17 observations 2020 Nov. 13-25; mean residual 0".30
Residuals in arcseconds: 
201113 G96  .00   .08+    201122 I52  .22-  .05-    201123 V06  .21-  .05+    
201113 G96  .00   .08-    201122 I52  .23-  .36+    201123 V06  .16+  .06+    
201122 G96  .62+  .05-    201122 V06  .64-  .12-    201125 I52  .63+  .05-    
201122 G96  .22+  .11-    201122 V06  .00   .14-    201125 I52  .29+  .43-    
201122 G96  .06-  .16-    201122 V06  .02+  .06-    201125 I52  .85-  .43+    
201122 I52  .27+  .04+    201123 V06  .22-  .24+    

Ephemerides (geocentric):
Date (UTC) HH   RA              Dec         delta   r     elong  mag " sig PA
---- -- -- --  -------------   -----------  ------ ------ -----  --- ---- ---
2020 11 25 12  04 01 06.952   +37 07 00.62  .93393 1.9015 163.7 21.6 .270  29
2020 11 25 13  04 01 01.700   +37 07 30.00  .93394 1.9015 163.7 21.6 .276  29
2020 11 25 14  04 00 56.447   +37 07 59.33  .93395 1.9015 163.7 21.6 .282  29
2020 11 25 15  04 00 51.193   +37 08 28.62  .93395 1.9015 163.7 21.6 .288  29
2020 11 25 16  04 00 45.938   +37 08 57.86  .93396 1.9015 163.7 21.6 .294  29
2020 11 25 17  04 00 40.683   +37 09 27.07  .93397 1.9015 163.7 21.6 .300  29
2020 11 25 18  04 00 35.427   +37 09 56.23  .93398 1.9015 163.7 21.6 .306  29
2020 11 25 19  04 00 30.169   +37 10 25.34  .93399 1.9014 163.7 21.6 .313  28
2020 11 25 20  04 00 24.912   +37 10 54.42  .93400 1.9014 163.7 21.6 .319  28
2020 11 25 21  04 00 19.653   +37 11 23.45  .93402 1.9014 163.6 21.6 .325  28
2020 11 25 22  04 00 14.394   +37 11 52.44  .93403 1.9014 163.6 21.6 .332  28
2020 11 25 23  04 00 09.134   +37 12 21.38  .93404 1.9014 163.6 21.6 .338  28
2020 11 26 00  04 00 03.873   +37 12 50.29  .93405 1.9014 163.6 21.6 .344  28
2020 11 26 01  03 59 58.612   +37 13 19.15  .93407 1.9014 163.6 21.6 .351  28
2020 11 26 02  03 59 53.350   +37 13 47.96  .93408 1.9014 163.6 21.6 .357  27
2020 11 26 03  03 59 48.087   +37 14 16.73  .93409 1.9014 163.6 21.6 .364  27
2020 11 26 04  03 59 42.824   +37 14 45.46  .93411 1.9014 163.6 21.6 .370  27
2020 11 26 05  03 59 37.560   +37 15 14.15  .93412 1.9014 163.6 21.6 .377  27
2020 11 26 06  03 59 32.295   +37 15 42.79  .93414 1.9013 163.6 21.6 .383  27
2020 11 26 07  03 59 27.030   +37 16 11.39  .93415 1.9013 163.6 21.6 .390  27
2020 11 26 08  03 59 21.764   +37 16 39.95  .93417 1.9013 163.6 21.6 .396  27
2020 11 26 09  03 59 16.498   +37 17 08.46  .93419 1.9013 163.6 21.6 .403  26
2020 11 26 10  03 59 11.231   +37 17 36.93  .93420 1.9013 163.6 21.6 .410  26
2020 11 26 11  03 59 05.964   +37 18 05.35  .93422 1.9013 163.6 21.6 .416  26
2020 11 26 12  03 59 00.696   +37 18 33.73  .93424 1.9013 163.5 21.6 .423  26
2020 11 26 13  03 58 55.428   +37 19 02.07  .93426 1.9013 163.5 21.6 .430  26
2020 11 26 14  03 58 50.159   +37 19 30.37  .93428 1.9013 163.5 21.6 .437  26
2020 11 26 15  03 58 44.889   +37 19 58.62  .93430 1.9013 163.5 21.6 .444  26
2020 11 26 16  03 58 39.620   +37 20 26.83  .93432 1.9013 163.5 21.6 .450  26
2020 11 26 17  03 58 34.349   +37 20 54.99  .93434 1.9012 163.5 21.6 .457  25
2020 11 26 18  03 58 29.079   +37 21 23.11  .93436 1.9012 163.5 21.6 .464  25
2020 11 26 19  03 58 23.808   +37 21 51.19  .93438 1.9012 163.5 21.6 .471  25
2020 11 26 20  03 58 18.536   +37 22 19.22  .93440 1.9012 163.5 21.6 .478  25
2020 11 26 21  03 58 13.264   +37 22 47.21  .93443 1.9012 163.5 21.6 .485  25
2020 11 26 22  03 58 07.992   +37 23 15.15  .93445 1.9012 163.5 21.6 .492  25
2020 11 26 23  03 58 02.720   +37 23 43.06  .93447 1.9012 163.4 21.6 .500  25
2020 11 27 00  03 57 57.447   +37 24 10.91  .93450 1.9012 163.4 21.6 .507  25
2020 11 27 01  03 57 52.174   +37 24 38.73  .93452 1.9012 163.4 21.6 .514  24
2020 11 27 02  03 57 46.900   +37 25 06.50  .93455 1.9012 163.4 21.6 .521  24
2020 11 27 03  03 57 41.626   +37 25 34.22  .93457 1.9012 163.4 21.6 .528  24
2020 11 27 04  03 57 36.352   +37 26 01.91  .93460 1.9011 163.4 21.6 .535  24
2020 11 27 05  03 57 31.078   +37 26 29.55  .93462 1.9011 163.4 21.6 .543  24
2020 11 27 06  03 57 25.804   +37 26 57.14  .93465 1.9011 163.4 21.6 .550  24
2020 11 27 07  03 57 20.529   +37 27 24.69  .93468 1.9011 163.4 21.6 .557  24
2020 11 27 08  03 57 15.254   +37 27 52.20  .93471 1.9011 163.3 21.6 .565  24
2020 11 27 09  03 57 09.979   +37 28 19.66  .93473 1.9011 163.3 21.6 .572  23
2020 11 27 10  03 57 04.703   +37 28 47.08  .93476 1.9011 163.3 21.6 .580  23
2020 11 27 11  03 56 59.428   +37 29 14.45  .93479 1.9011 163.3 21.6 .587  23